SP5AP-3 Weather Reports


Display with metric or nautical units.
time (UTC)temp
F
wind
direction
speed
MPH
gust
MPH
rain 1hr
in
rain 24hr
in
rain mn
in
humidity
%
barometer
mb
20260905215128 57 0 0.0 0.0 0.00 0.00 0.00 8 1013.8
20260905214627 57 0 0.0 0.0 0.00 0.00 0.00 8 1013.8
20260905214127 57 330 0.0 1.0 0.00 0.00 0.00 8 1013.8
20260905213627 57 273 0.0 1.0 0.00 0.00 0.00 8 1013.7
20260905213126 57 0 0.0 0.0 0.00 0.00 0.00 8 1013.9
20260905212626 57 329 1.0 3.0 0.00 0.00 0.00 8 1013.6
20260905212126 58 0 0.0 0.0 0.00 0.00 0.00 8 1013.6
20260905211626 58 10 1.0 2.0 0.00 0.00 0.00 8 1013.6
20260905211125 58 30 0.0 1.0 0.00 0.00 0.00 8 1013.6
20260905210625 58 354 1.0 1.0 0.00 0.00 0.00 8 1013.4
20260905210125 58 0 0.0 0.0 0.00 0.00 0.00 8 1013.5
20260905205624 58 293 0.0 1.0 0.00 0.00 0.00 7 1013.4
20260905205124 58 0 0.0 0.0 0.00 0.00 0.00 7 1013.5
20260905204624 58 0 0.0 0.0 0.00 0.00 0.00 7 1013.2
20260905204123 58 0 0.0 0.0 0.00 0.00 0.00 7 1013.4
20260905203623 59 308 1.0 2.0 0.00 0.00 0.00 7 1013.4
20260905203123 59 336 1.0 1.0 0.00 0.00 0.00 7 1013.1
20260905202622 59 0 0.0 0.0 0.00 0.00 0.00 7 1013.1
20260905202122 59 0 0.0 0.0 0.00 0.00 0.00 7 1013.2
20260905201621 59 359 0.0 1.0 0.00 0.00 0.00 7 1013.4
20260905201121 59 354 0.0 1.0 0.00 0.00 0.00 7 1013.2
20260905200621 59 0 0.0 0.0 0.00 0.01 0.00 7 1013.1
20260905200121 59 340 0.0 1.0 0.00 0.02 0.00 7 1012.9
20260905195620 59 302 0.0 1.0 0.00 0.02 0.00 7 1013.2
20260905195120 60 291 1.0 2.0 0.00 0.02 0.00 7 1013.1
20260905194619 60 357 0.0 1.0 0.00 0.05 0.00 7 1013.0
20260905194119 60 335 0.0 1.0 0.00 0.07 0.00 7 1012.9
20260905193619 60 352 0.0 1.0 0.00 0.09 0.00 7 1012.9
20260905193118 60 0 0.0 0.0 0.00 0.09 0.00 7 1013.0
20260905192618 60 0 0.0 0.0 0.00 0.10 0.00 7 1013.2
20260905192118 60 347 0.0 1.0 0.00 0.11 0.00 7 1013.0
20260905191618 60 260 1.0 2.0 0.00 0.11 0.00 7 1012.7
20260905191117 60 0 0.0 0.0 0.00 0.11 0.00 8 1013.0
20260905190617 60 0 0.0 0.0 0.00 0.11 0.00 8 1013.2
20260905190117 59 199 0.0 1.0 0.00 0.11 0.00 8 1012.8
20260905185616 59 0 0.0 0.0 0.00 0.11 0.00 8 1013.0
20260905185116 60 258 0.0 1.0 0.00 0.11 0.00 8 1013.2
20260905184616 60 273 0.0 1.0 0.00 0.11 0.00 7 1012.9
20260905184115 60 252 0.0 1.0 0.00 0.11 0.00 7 1012.9
20260905183615 61 226 0.0 1.0 0.00 0.11 0.00 7 1013.1
20260905183115 61 261 0.0 1.0 0.00 0.11 0.00 7 1013.2
20260905182614 61 1 0.0 1.0 0.00 0.11 0.00 7 1013.1
20260905182114 62 323 0.0 1.0 0.00 0.11 0.00 7 1013.4
20260905181614 62 0 0.0 0.0 0.00 0.11 0.00 7 1013.3
20260905181113 62 11 0.0 1.0 0.00 0.11 0.00 7 1013.3
20260905180613 62 0 0.0 0.0 0.00 0.11 0.00 7 1013.1
20260905180113 62 355 0.0 1.0 0.00 0.11 0.00 7 1012.8
20260905175612 62 268 0.0 1.0 0.00 0.11 0.00 7 1012.8
20260905175112 62 0 0.0 0.0 0.00 0.11 0.00 7 1013.0
20260905174612 62 356 0.0 1.0 0.00 0.11 0.00 7 1012.9
20260905174111 62 354 0.0 1.0 0.00 0.11 0.00 7 1012.9
20260905173611 62 205 0.0 1.0 0.00 0.11 0.00 7 1012.7
20260905173111 62 353 1.0 2.0 0.00 0.11 0.00 7 1012.8
20260905172610 62 0 0.0 0.0 0.00 0.11 0.00 7 1012.8
20260905172110 62 0 0.0 0.0 0.00 0.11 0.00 7 1012.9
20260905171610 62 255 1.0 2.0 0.00 0.11 0.00 7 1013.0
20260905171109 62 356 0.0 1.0 0.00 0.11 0.00 7 1012.9
20260905170609 62 313 0.0 1.0 0.00 0.11 0.00 7 1013.0
20260905170108 62 356 1.0 2.0 0.00 0.11 0.00 6 1012.7
20260905165608 63 0 0.0 0.0 0.00 0.11 0.00 6 1012.8
20260905165108 63 355 0.0 1.0 0.00 0.11 0.00 6 1012.7
20260905164608 63 0 0.0 0.0 0.00 0.11 0.00 6 1013.0
20260905164107 63 343 1.0 2.0 0.00 0.11 0.00 6 1012.9
20260905163607 63 329 1.0 2.0 0.00 0.11 0.00 6 1012.7
20260905163106 63 238 0.0 1.0 0.00 0.11 0.00 6 1012.6
20260905162606 63 352 0.0 1.0 0.00 0.11 0.00 6 1012.4
20260905162106 63 333 1.0 2.0 0.00 0.11 0.00 6 1012.5
20260905161606 63 261 0.0 2.0 0.00 0.11 0.00 6 1012.4
20260905161105 63 357 0.0 1.0 0.00 0.11 0.00 6 1012.4
20260905160605 63 17 1.0 2.0 0.00 0.11 0.00 6 1012.4
20260905160105 63 0 0.0 0.0 0.00 0.11 0.00 6 1012.1
20260905155604 63 0 0.0 0.0 0.00 0.11 0.00 6 1012.1
20260905155104 63 337 1.0 2.0 0.00 0.11 0.00 6 1012.2
20260905154604 63 230 1.0 2.0 0.00 0.11 0.00 6 1012.2
20260905154103 63 18 1.0 1.0 0.00 0.11 0.00 6 1012.3
20260905153603 63 337 0.0 1.0 0.00 0.11 0.00 6 1012.5
20260905153102 64 222 2.0 2.0 0.00 0.11 0.00 6 1012.6
20260905152602 64 95 4.0 9.0 0.00 0.11 0.00 6 1012.5
20260905152102 65 14 0.0 1.0 0.00 0.11 0.00 6 1012.3
20260905151602 65 33 1.0 2.0 0.00 0.11 0.00 6 1012.2
20260905151101 65 328 1.0 2.0 0.00 0.11 0.00 5 1012.2
20260905150601 66 218 2.0 2.0 0.00 0.11 0.00 5 1012.1
20260905150100 66 246 2.0 3.0 0.00 0.11 0.00 5 1012.1
20260905145600 66 342 0.0 1.0 0.00 0.11 0.00 6 1012.1
20260905145100 66 332 2.0 4.0 0.00 0.11 0.00 5 1011.9
20260905144559 66 322 0.0 1.0 0.00 0.11 0.00 5 1012.0
20260905144059 66 3 1.0 2.0 0.00 0.11 0.00 5 1011.9
20260905143559 67 323 0.0 1.0 0.00 0.11 0.00 5 1011.5
20260905143058 67 2 0.0 1.0 0.00 0.11 0.00 5 1011.5
20260905142558 67 338 1.0 2.0 0.00 0.11 0.00 5 1011.5
20260905142058 67 318 0.0 1.0 0.00 0.11 0.00 5 1011.3
20260905141558 67 249 2.0 2.0 0.00 0.11 0.00 5 1011.5
20260905141057 68 266 2.0 2.0 0.00 0.11 0.00 5 1011.5
20260905140557 67 212 0.0 1.0 0.00 0.11 0.00 5 1011.2
20260905140057 68 12 1.0 2.0 0.00 0.11 0.00 5 1011.5
20260905135556 68 96 1.0 3.0 0.00 0.11 0.00 5 1011.3
20260905135056 69 17 1.0 2.0 0.00 0.11 0.00 5 1011.0
20260905134556 68 0 0.0 0.0 0.00 0.11 0.00 5 1011.1
20260905134055 68 5 0.0 1.0 0.00 0.11 0.00 5 1011.2
20260905133555 67 26 0.0 1.0 0.00 0.11 0.00 5 1011.2
20260905133055 67 0 0.0 0.0 0.00 0.11 0.00 5 1011.1
20260905132554 67 5 0.0 2.0 0.00 0.11 0.00 5 1011.3
20260905132054 67 237 0.0 2.0 0.00 0.11 0.00 5 1011.3
20260905131553 67 0 0.0 0.0 0.00 0.11 0.00 5 1011.4
20260905131053 67 357 0.0 1.0 0.00 0.11 0.00 5 1011.6
20260905130553 68 13 2.0 3.0 0.00 0.11 0.00 5 1011.6
20260905130053 68 7 1.0 2.0 0.00 0.11 0.00 5 1011.2
20260905125552 68 358 0.0 1.0 0.00 0.11 0.00 5 1011.1
20260905125052 68 10 1.0 1.0 0.00 0.11 0.00 5 1011.1
20260905124552 68 345 2.0 2.0 0.00 0.11 0.00 5 1011.2
20260905124051 68 7 2.0 2.0 0.00 0.11 0.00 5 1011.1
20260905123551 68 0 0.0 0.0 0.00 0.11 0.00 5 1011.3
20260905123051 68 357 1.0 2.0 0.00 0.11 0.00 5 1011.2
20260905122550 70 141 1.0 2.0 0.00 0.11 0.00 5 1011.1
20260905122050 69 325 0.0 1.0 0.00 0.11 0.00 5 1011.2
20260905121550 69 354 1.0 1.0 0.00 0.11 0.00 5 1011.3
20260905121049 69 7 0.0 1.0 0.00 0.11 0.00 5 1011.2
20260905120549 69 333 1.0 3.0 0.00 0.11 0.00 5 1011.6
20260905120049 69 261 1.0 2.0 0.00 0.11 0.00 5 1010.9
20260905115548 69 329 1.0 3.0 0.00 0.11 0.00 5 1011.3
20260905115048 69 185 3.0 5.0 0.00 0.11 0.00 5 1011.4
20260905114548 68 336 2.0 4.0 0.00 0.11 0.00 5 1011.5
20260905114047 68 274 1.0 2.0 0.00 0.11 0.00 5 1011.4
20260905113547 68 187 2.0 3.0 0.00 0.11 0.00 5 1011.4
20260905113047 69 219 2.0 3.0 0.00 0.11 0.00 5 1011.0
20260905112546 70 85 4.0 8.0 0.00 0.11 0.00 5 1010.8
20260905112046 69 261 1.0 2.0 0.00 0.11 0.00 5 1010.8
20260905111546 68 214 1.0 3.0 0.00 0.11 0.00 5 1011.0
20260905111045 68 301 1.0 3.0 0.00 0.11 0.00 5 1011.0
20260905110545 69 5 0.0 2.0 0.00 0.11 0.00 5 1010.7
20260905110045 69 288 0.0 1.0 0.00 0.11 0.00 5 1010.8
20260905105544 68 342 0.0 1.0 0.00 0.11 0.00 5 1010.8
20260905105044 68 9 0.0 1.0 0.00 0.11 0.00 5 1010.8
20260905104544 68 352 1.0 1.0 0.00 0.11 0.00 5 1010.6
20260905104043 68 287 0.0 2.0 0.00 0.11 0.00 6 1011.1
20260905103543 68 335 2.0 4.0 0.00 0.11 0.00 6 1010.6
20260905103043 67 0 0.0 0.0 0.00 0.11 0.00 6 1010.9
20260905102542 67 220 2.0 2.0 0.00 0.11 0.00 6 1010.7
20260905102042 66 341 1.0 2.0 0.00 0.11 0.00 6 1010.5
20260905101542 66 3 0.0 1.0 0.00 0.11 0.00 6 1010.9
20260905101041 65 312 0.0 1.0 0.00 0.11 0.00 6 1011.0
20260905100541 65 287 0.0 1.0 0.00 0.11 0.00 6 1010.7
20260905100041 65 57 0.0 1.0 0.00 0.11 0.00 6 1010.7
20260905095540 65 0 0.0 0.0 0.00 0.11 0.00 6 1010.6
20260905095040 64 0 0.0 0.0 0.00 0.11 0.00 6 1010.6
20260905094540 65 231 2.0 3.0 0.00 0.11 0.00 6 1010.7
20260905094039 65 8 0.0 1.0 0.00 0.11 0.00 6 1010.5
20260905093539 66 11 0.0 1.0 0.00 0.11 0.00 6 1010.6
20260905093039 67 338 0.0 1.0 0.00 0.11 0.00 6 1010.4
20260905092538 68 336 0.0 1.0 0.00 0.11 0.00 6 1010.5
20260905092038 67 356 0.0 1.0 0.00 0.11 0.00 6 1010.4
20260905091538 67 238 1.0 2.0 0.00 0.11 0.00 6 1010.3
20260905091037 67 329 1.0 1.0 0.00 0.11 0.00 6 1010.3
20260905090537 66 356 0.0 2.0 0.00 0.11 0.00 6 1010.3
20260905090037 66 3 0.0 1.0 0.00 0.11 0.00 6 1010.4
20260905085536 66 329 2.0 2.0 0.00 0.11 0.00 6 1010.4
20260905085036 66 185 1.0 1.0 0.00 0.11 0.00 6 1010.2
20260905084536 65 336 1.0 2.0 0.00 0.11 0.00 6 1010.1
20260905084035 65 119 0.0 1.0 0.00 0.11 0.00 6 1010.1
20260905083535 65 327 2.0 4.0 0.00 0.11 0.00 7 1010.0
20260905083035 65 352 0.0 1.0 0.00 0.11 0.00 7 1010.2
20260905082534 65 271 1.0 2.0 0.00 0.11 0.00 7 1009.8
20260905082034 65 230 2.0 3.0 0.00 0.11 0.00 7 1010.1
20260905081534 65 354 0.0 2.0 0.00 0.11 0.00 7 1010.0
20260905081033 64 319 0.0 1.0 0.00 0.11 0.00 7 1010.0
20260905080533 64 328 1.0 2.0 0.00 0.11 0.00 7 1010.2
20260905080033 63 36 2.0 2.0 0.00 0.11 0.00 7 1010.1
20260905075532 63 298 1.0 2.0 0.00 0.11 0.00 7 1010.2
20260905075032 63 0 0.0 0.0 0.00 0.11 0.00 7 1010.0
20260905074532 63 346 0.0 1.0 0.00 0.11 0.00 7 1010.1
20260905074031 63 11 1.0 2.0 0.00 0.11 0.00 7 1009.9
20260905073531 63 18 0.0 1.0 0.00 0.11 0.00 7 1010.0
20260905073031 63 332 0.0 1.0 0.00 0.11 0.00 7 1009.9
20260905072530 63 0 0.0 0.0 0.00 0.11 0.00 7 1010.2
20260905072030 63 0 0.0 0.0 0.00 0.11 0.00 7 1009.8
20260905071530 62 337 0.0 1.0 0.00 0.11 0.00 7 1009.8
20260905071029 62 324 3.0 4.0 0.00 0.11 0.00 7 1009.9
20260905070529 62 284 0.0 2.0 0.00 0.11 0.00 7 1009.8
20260905070029 62 0 0.0 0.0 0.00 0.11 0.00 7 1009.7
20260905065528 62 327 0.0 1.0 0.00 0.11 0.00 7 1009.5
20260905065028 62 0 0.0 0.0 0.00 0.11 0.00 7 1009.4
20260905064528 62 4 0.0 1.0 0.00 0.11 0.00 7 1009.3
20260905064027 62 43 0.0 1.0 0.00 0.11 0.00 7 1009.2
20260905063527 62 351 0.0 1.0 0.00 0.11 0.00 7 1009.4
20260905063027 62 0 0.0 0.0 0.00 0.11 0.00 7 1009.4
20260905062526 62 0 0.0 0.0 0.00 0.11 0.00 7 1009.3
20260905062026 62 349 0.0 1.0 0.00 0.11 0.00 7 1009.0
20260905061526 62 0 0.0 0.0 0.00 0.11 0.00 7 1008.7
20260905061025 62 2 0.0 1.0 0.00 0.11 0.00 7 1009.2
20260905060525 61 18 3.0 4.0 0.00 0.11 0.00 7 1009.0
20260905060025 61 0 0.0 0.0 0.00 0.11 0.00 7 1009.0
20260905055524 60 358 0.0 1.0 0.00 0.11 0.00 7 1008.9
20260905055024 60 0 0.0 0.0 0.00 0.11 0.00 7 1008.8
20260905054524 60 354 0.0 2.0 0.00 0.11 0.00 7 1008.8
20260905054023 60 41 2.0 5.0 0.00 0.11 0.00 7 1008.7
20260905053523 60 0 0.0 0.0 0.00 0.13 0.00 7 1008.6
20260905053023 60 332 0.0 2.0 0.00 0.13 0.00 7 1008.8
20260905052522 60 0 0.0 0.0 0.00 0.13 0.00 8 1008.9
20260905052022 60 346 0.0 1.0 0.00 0.13 0.00 8 1008.5
20260905051522 60 0 0.0 0.0 0.00 0.13 0.00 8 1008.4
20260905051021 60 188 0.0 1.0 0.00 0.13 0.00 8 1008.7
20260905050521 60 231 0.0 2.0 0.00 0.13 0.00 8 1008.6
20260905050021 60 315 0.0 2.0 0.00 0.13 0.00 8 1008.2
20260905045520 60 0 0.0 0.0 0.00 0.13 0.00 8 1008.1
20260905045020 60 266 0.0 1.0 0.00 0.13 0.00 8 1008.0
20260905044520 60 204 0.0 1.0 0.00 0.13 0.00 8 1008.1
20260905044019 59 350 0.0 1.0 0.00 0.13 0.00 8 1007.7
20260905043519 59 0 0.0 0.0 0.00 0.13 0.00 8 1007.9
20260905043019 59 0 0.0 0.0 0.00 0.13 0.00 8 1008.1
20260905042518 59 0 0.0 0.0 0.00 0.13 0.00 8 1007.7
20260905042018 59 0 0.0 0.0 0.00 0.13 0.00 8 1007.6
20260905041518 59 265 1.0 2.0 0.00 0.13 0.00 8 1007.5
20260905041017 59 0 0.0 0.0 0.00 0.13 0.00 8 1007.4
20260905040517 59 0 0.0 0.0 0.00 0.13 0.00 9 1007.3
20260905040017 59 294 0.0 1.0 0.00 0.13 0.00 9 1007.3
20260905035516 59 0 0.0 0.0 0.00 0.13 0.00 9 1007.3
20260905035016 59 0 0.0 0.0 0.00 0.13 0.00 9 1007.2
20260905034516 59 0 0.0 0.0 0.00 0.13 0.00 9 1006.8
20260905034015 59 0 0.0 0.0 0.00 0.13 0.00 9 1006.9
20260905033515 59 0 0.0 0.0 0.00 0.13 0.00 9 1006.5
20260905033015 60 0 0.0 0.0 0.00 0.13 0.00 8 1006.5
20260905032514 61 225 1.0 2.0 0.00 0.13 0.00 8 1006.4
20260905032014 62 0 0.0 0.0 0.00 0.13 0.00 8 1006.2
20260905031514 62 240 4.0 5.0 0.00 0.13 0.00 8 1005.6
20260905031013 62 0 0.0 0.0 0.00 0.13 0.00 8 1005.8
20260905030513 62 267 2.0 2.0 0.00 0.13 0.00 8 1005.9
20260905030013 62 0 0.0 0.0 0.00 0.13 0.00 8 1006.1
20260905025512 62 210 0.0 2.0 0.00 0.13 0.00 8 1005.9
20260905025012 62 226 3.0 4.0 0.00 0.13 0.00 8 1005.9
20260905024512 62 310 0.0 1.0 0.00 0.13 0.00 8 1005.6
20260905024011 62 0 0.0 0.0 0.00 0.13 0.00 8 1005.9
20260905023511 62 147 0.0 1.0 0.00 0.13 0.00 8 1005.8
20260905023011 62 0 0.0 0.0 0.00 0.13 0.00 8 1005.7
20260905022510 62 0 0.0 0.0 0.00 0.13 0.00 8 1006.0
20260905022010 63 0 0.0 0.0 0.00 0.13 0.00 8 1005.8
20260905021510 63 352 0.0 1.0 0.00 0.13 0.00 8 1005.8
20260905021010 63 0 0.0 0.0 0.00 0.13 0.00 8 1005.5
20260905020509 63 346 1.0 2.0 0.00 0.13 0.00 8 1005.6
20260905020009 63 354 1.0 2.0 0.00 0.13 0.00 8 1005.6
20260905015508 63 2 0.0 1.0 0.00 0.13 0.00 8 1005.2
20260905015008 63 258 2.0 2.0 0.00 0.13 0.00 8 1005.4
20260905014508 63 169 4.0 8.0 0.00 0.13 0.00 8 1005.2
20260905014007 63 6 0.0 1.0 0.00 0.13 0.00 8 1005.3
20260905013507 63 0 0.0 0.0 0.00 0.13 0.00 8 1005.2
20260905013007 63 0 0.0 0.0 0.00 0.13 0.00 8 1005.1
20260905012507 64 229 1.0 3.0 0.00 0.13 0.00 8 1005.2
20260905012006 64 343 0.0 1.0 0.00 0.13 0.00 8 1005.0
20260905011506 64 262 0.0 2.0 0.00 0.13 0.00 8 1005.3
20260905011006 64 256 1.0 2.0 0.00 0.13 0.00 8 1004.9
20260905010005 64 290 2.0 3.0 0.00 0.13 0.00 8 1004.9
20260905005505 64 8 0.0 1.0 0.00 0.13 0.00 8 1004.7
20260905005004 64 342 1.0 2.0 0.00 0.13 0.00 8 1004.7
20260905004504 64 293 1.0 1.0 0.00 0.13 0.00 9 1004.6
20260905004004 64 57 0.0 1.0 0.00 0.13 0.00 9 1004.3
20260905003503 64 359 1.0 3.0 0.00 0.13 0.00 9 1004.6
20260905003003 64 245 1.0 1.0 0.00 0.13 0.00 9 1004.6
20260905002502 64 97 1.0 3.0 0.00 0.13 0.00 9 1004.2
20260905002002 64 0 0.0 0.0 0.00 0.13 0.00 9 1004.4
20260905001502 64 324 0.0 1.0 0.00 0.13 0.00 9 1004.2
20260905001002 64 15 0.0 1.0 0.00 0.13 0.00 9 1004.2
20260905000501 64 5 0.0 2.0 0.00 0.13 0.00 9 1004.4
20260905000001 64 279 1.0 2.0 0.00 0.13 0.00 9 1004.5
20260904235500 64 163 0.0 1.0 0.00 0.13 0.00 9 1004.2
20260904235000 64 1 0.0 1.0 0.00 0.13 0.00 9 1004.4
20260904234500 64 354 0.0 1.0 0.00 0.13 0.00 9 1004.4
20260904233959 64 12 0.0 1.0 0.00 0.13 0.00 9 1004.2
20260904233459 64 11 0.0 3.0 0.00 0.13 0.00 9 1004.2
20260904232959 64 0 0.0 0.0 0.00 0.13 0.00 9 1004.2
20260904232458 64 0 0.0 0.0 0.00 0.13 0.00 9 1004.2
20260904231958 64 341 0.0 1.0 0.00 0.13 0.00 9 1004.3
20260904231458 64 348 0.0 1.0 0.00 0.13 0.00 9 1004.4
20260904230957 64 0 0.0 0.0 0.00 0.13 0.00 9 1004.6
20260904230457 64 348 0.0 1.0 0.00 0.13 0.00 9 1004.6
20260904225957 64 321 0.0 1.0 0.00 0.13 0.00 9 1004.5
20260904225456 64 0 0.0 0.0 0.00 0.15 0.00 9 1004.2
20260904224956 64 0 0.0 0.0 0.00 0.15 0.00 9 1003.9
20260904224456 63 0 0.0 0.0 0.00 0.15 0.00 9 1004.1
20260904223955 63 0 0.0 0.0 0.00 0.15 0.00 9 1004.3
20260904223455 63 0 0.0 0.0 0.00 0.15 0.00 9 1004.1
20260904222955 63 1 0.0 1.0 0.00 0.15 0.00 9 1003.8
20260904222454 63 0 0.0 0.0 0.00 0.15 0.00 9 1003.8
20260904221954 63 21 0.0 1.0 0.00 0.15 0.00 9 1003.7
20260904221454 63 263 0.0 1.0 0.00 0.15 0.00 9 1003.9
20260904220953 63 344 0.0 1.0 0.00 0.15 0.00 9 1003.9
20260904220453 63 0 0.0 0.0 0.00 0.15 0.00 9 1003.9
20260904215953 63 13 0.0 1.0 0.00 0.15 0.15 9 1004.0
20260904215452 63 0 0.0 0.0 0.00 0.15 0.15 9 1003.7